Waarnemingen

Advertentie
Mijn weer
Kempten, Duitsland (10946): temperatuur & dauwpunt: 20.09.2017 02:00:00 - 26.09.2017 02:00:00 (CEST)Kempten, Duitsland (10946): temperatuur 5cm & temperatuur -5cm: 20.09.2017 02:00:00 - 26.09.2017 02:00:00 (CEST)Kempten, Duitsland (10946): temperatuur -20cm & temperatuur -100cm: 20.09.2017 02:00:00 - 26.09.2017 02:00:00 (CEST)Kempten, Duitsland (10946): windsnelheid & windstoten: 20.09.2017 02:00:00 - 26.09.2017 02:00:00 (CEST)Kempten, Duitsland (10946): windrichting: 20.09.2017 02:00:00 - 26.09.2017 02:00:00 (CEST)Kempten, Duitsland (10946): luchtdruk: 20.09.2017 02:00:00 - 26.09.2017 02:00:00 (CEST)Kempten, Duitsland (10946): zicht: 20.09.2017 02:00:00 - 26.09.2017 02:00:00 (CEST)Kempten, Duitsland (10946): Zonneschijnduur: 20.09.2017 02:00:00 - 26.09.2017 02:00:00 (CEST)Kempten, Duitsland (10946): neerslag: 20.09.2017 02:00:00 - 26.09.2017 02:00:00 (CEST)
Datum & Tijd tt [°C] td [°C] tt 5cm [°C] tt -5cm [°C] tt -20cm [°C] tt -100cm [°C] ff [km/u] ff [kn] fx [km/u] fx [kn] dd ppp [hPa] vv [km] sd [min] rr [mm]
26.09.2017 02:00:00 8,1 7,2 7,1 10,2 13,8 14,3 8 4 10 6 OZO 1021,5 14 0 0,0
26.09.2017 01:00:00 8,7 7,7 8,0 10,5 14,1 14,3 6 3 15 8 ZO 1021,1 17 0 0,0
26.09.2017 00:00:00 7,2 6,9 6,0 10,4 14,6 14,3 9 5 11 6 OZO 1021,5 10 0 0,0
25.09.2017 23:00:00 7,5 7,0 6,5 11,2 15,0 14,3 6 3 8 5 OZO 1021,3 9 0 0,0
25.09.2017 22:00:00 8,6 7,7 7,2 12,1 15,5 14,3 5 3 8 5 O 1020,7 10 0 0,0
25.09.2017 21:00:00 10,0 8,4 7,9 13,3 16,0 14,3 0 0 8 4 N 1020,1 15 0 0,0
25.09.2017 20:00:00 12,9 9,0 10,1 14,7 16,3 14,3 5 3 12 7 NO 1018,6 22 0 0,0
25.09.2017 19:00:00 15,2 9,1 13,4 16,7 16,5 14,3 3 2 11 6 NO 1017,8 27 50 0,0
25.09.2017 18:00:00 17,0 8,9 17,3 18,9 16,5 14,3 7 4 13 7 O 1017,0 12 60 0,0
25.09.2017 17:00:00 17,8 6,5 19,3 20,8 16,2 14,3 1 1 14 8 O 1016,8 28 54 0,0
25.09.2017 16:00:00 17,9 7,7 18,3 21,7 15,8 14,3 7 4 16 8 NW 1016,7 46 41 0,0
25.09.2017 15:00:00 17,4 7,4 19,6 22,6 15,1 14,3 6 3 13 7 ONO 1017,0 24 54 0,0
25.09.2017 14:00:00 16,9 7,1 19,8 22,2 14,4 14,3 3 2 16 9 O 1017,0 18 59 0,0
25.09.2017 13:00:00 16,7 8,1 20,4 20,9 13,6 14,3 4 2 18 10 O 1017,5 25 60 0,0
25.09.2017 12:00:00 15,9 8,7 19,0 18,9 13,0 14,3 6 3 13 7 NNW 1018,2 27 60 0,0
25.09.2017 11:00:00 13,6 7,4 16,8 16,2 12,5 14,3 4 2 8 4 NNW 1019,2 24 60 0,0
25.09.2017 10:00:00 11,1 7,6 13,1 12,8 12,4 14,3 4 2 13 7 ZZW 1020,0 26 60 0,0
25.09.2017 09:00:00 9,9 7,6 10,5 10,1 12,5 14,3 5 3 9 5 ZZO 1020,5 25 60 0,0
25.09.2017 08:00:00 8,0 7,5 7,2 9,9 12,7 14,3 6 3 8 5 O 1021,1 7 5 0,0
25.09.2017 07:00:00 8,8 8,4 8,1 10,5 12,9 14,3 3 2 8 5 ZO 1020,5 10 0 0,0
25.09.2017 06:00:00 8,8 8,6 8,4 10,7 13,0 14,3 6 3 8 4 OZO 1020,5 3,0 0 0,0
25.09.2017 05:00:00 9,2 8,9 8,8 10,9 13,2 14,3 5 3 6 4 OZO 1020,6 3,4 0 0,0
25.09.2017 04:00:00 9,3 9,0 8,9 11,1 13,4 14,3 6 3 7 4 O 1020,7 3,5 0 0,0
25.09.2017 03:00:00 9,5 9,1 9,2 11,4 13,5 14,3 4 2 5 3 O 1020,7 4,7 0 0,0
25.09.2017 02:00:00 9,8 9,4 9,2 11,6 13,7 14,3 1 0 9 5 O 1021,1 5 0 0,0
25.09.2017 01:00:00 10,1 9,5 9,5 11,8 14,0 14,3 3 2 10 5 ZO 1021,5 7 0 0,1
25.09.2017 00:00:00 9,8 9,2 9,4 12,1 14,2 14,3 5 3 6 3 O 1021,8 7 0 0,0
24.09.2017 23:00:00 9,9 9,2 9,4 12,4 14,5 14,3 0 0 6 3 N 1022,1 8 0 0,0
24.09.2017 22:00:00 10,9 9,6 9,8 13,2 14,8 14,2 5 3 8 4 O 1021,7 12 0 0,0
24.09.2017 21:00:00 11,2 9,8 10,4 13,8 15,0 14,2 4 2 10 5 WZW 1021,5 12 0 0,0
24.09.2017 20:00:00 12,0 9,5 11,3 14,6 15,3 14,2 6 4 11 6 NNW 1021,4 22 0 0,0
24.09.2017 19:00:00 12,2 10,5 11,3 15,8 15,5 14,2 0 0 6 3 N 1021,0 21 0 0,0
24.09.2017 18:00:00 14,4 8,4 13,7 17,7 15,4 14,2 3 2 6 4 ZO 1020,0 36 33 0,0
24.09.2017 17:00:00 13,7 9,2 14,3 18,0 15,4 14,2 5 3 16 9 O 1020,1 17 5 0,6
24.09.2017 16:00:00 13,7 9,6 12,9 20,6 14,8 14,2 10 5 18 10 NW 1020,6 9 41 0,0
24.09.2017 15:00:00 17,2 8,1 21,5 21,8 14,1 14,2 6 3 12 6 ZZW 1019,2 20 58 0,0
24.09.2017 14:00:00 16,5 8,8 21,0 20,8 13,2 14,2 6 4 13 7 Z 1019,6 16 58 0,0
24.09.2017 13:00:00 14,7 7,8 18,4 17,2 12,8 14,2 10 5 24 13 ZZW 1020,6 44 22 0,0
24.09.2017 12:00:00 13,0 7,7 13,5 13,9 12,5 14,2 11 6 19 10 Z 1021,1 35 0 0,0
24.09.2017 11:00:00 11,9 9,6 13,5 13,3 12,3 14,2 8 4 13 7 Z 1021,6 9 1 0,0
24.09.2017 10:00:00 10,6 9,8 10,4 11,6 12,3 14,2 5 3 11 6 Z 1021,7 3,2 0 0,0
24.09.2017 09:00:00 9,7 9,4 9,8 10,6 12,3 14,2 0 0 5 3 N 1021,5 1,6 0 0,0
24.09.2017 08:00:00 9,3 9,0 9,2 10,3 12,5 14,2 3 2 6 4 NNO 1021,3 2,0 0 0,0
24.09.2017 07:00:00 8,9 8,8 8,2 10,2 12,6 14,2 5 3 7 4 O 1020,9 1,5 0 0,0
24.09.2017 06:00:00 9,7 9,4 8,8 10,8 12,8 14,2 0 0 6 3 N 1020,4 1,7 0 0,0
24.09.2017 05:00:00 9,9 9,5 9,4 10,9 12,9 14,2 4 2 9 5 O 1020,6 2,1 0 0,0
24.09.2017 04:00:00 10,1 9,4 9,2 11,1 13,0 14,3 7 4 11 6 O 1020,3 3,6 0 0,0
24.09.2017 03:00:00 10,8 9,5 9,8 11,3 13,2 14,3 11 6 22 12 OZO 1019,9 5 0 0,1
24.09.2017 02:00:00 9,6 8,9 9,1 11,4 13,4 14,3 2 1 6 3 O 1021,1 4,1 0 0,0
24.09.2017 01:00:00 9,7 8,9 8,9 11,5 13,6 14,3 0 0 8 4 ZO 1021,4 6 0 0,0
24.09.2017 00:00:00 9,5 9,0 8,7 11,7 13,9 14,3 0 0 6 3 N 1021,5 4,5 0 0,0
23.09.2017 23:00:00 10,0 9,1 8,9 12,2 14,2 14,3 0 0 6 3 N 1021,3 4,6 0 0,0
23.09.2017 22:00:00 11,4 10,2 9,5 13,2 14,5 14,3 1 1 6 4 ZO 1021,2 4,8 0 0,0
23.09.2017 21:00:00 12,4 10,4 11,6 13,9 14,7 14,3 1 1 6 3 N 1020,9 8 0 0,0
23.09.2017 20:00:00 13,5 10,4 12,5 14,6 14,9 14,3 6 3 8 4 ONO 1020,5 10 0 0,0
23.09.2017 19:00:00 14,8 10,6 13,2 16,0 15,1 14,3 5 3 13 7 O 1019,9 12 0 0,0
23.09.2017 18:00:00 16,0 10,0 15,8 17,6 15,0 14,3 9 5 16 9 NO 1019,3 13 8 0,0
23.09.2017 17:00:00 17,4 9,2 18,0 19,5 14,6 14,3 6 3 14 7 N 1018,8 23 46 0,0
23.09.2017 16:00:00 17,2 9,8 18,3 19,0 14,2 14,3 6 4 17 9 N 1019,1 18 21 0,0
23.09.2017 15:00:00 17,8 9,4 19,2 20,5 13,6 14,3 6 4 16 9 NNO 1019,3 15 40 0,0
23.09.2017 14:00:00 17,6 9,1 20,1 20,7 12,9 14,3 8 4 14 8 NNO 1019,7 22 42 0,0
23.09.2017 13:00:00 16,2 8,2 19,3 19,5 12,1 14,3 5 3 14 7 NW 1020,8 21 54 0,0
23.09.2017 12:00:00 15,2 8,8 18,0 17,0 11,4 14,3 5 3 12 6 NNW 1021,6 24 49 0,0
23.09.2017 11:00:00 14,5 8,1 17,5 15,1 10,8 14,3 3 2 8 4 WNW 1022,0 41 59 0,0
23.09.2017 10:00:00 11,4 7,4 12,2 11,1 10,6 14,3 2 1 11 6 Z 1023,0 41 39 0,0
23.09.2017 09:00:00 9,4 6,0 9,1 8,2 10,6 14,3 4 2 10 5 ZO 1023,4 39 59 0,0
23.09.2017 08:00:00 6,4 5,6 5,2 7,5 10,8 14,3 3 2 7 4 ZO 1024,3 24 10 0,0
23.09.2017 07:00:00 6,6 5,9 5,3 7,8 11,0 14,3 1 1 7 4 O 1024,2 32 0 0,0
23.09.2017 06:00:00 7,2 6,2 5,7 8,0 11,1 14,3 2 1 9 5 ZO 1024,0 41 0 0,0
23.09.2017 05:00:00 7,5 6,1 6,2 8,1 11,3 14,3 7 4 13 7 OZO 1024,0 40 0 0,0
23.09.2017 04:00:00 7,3 6,2 5,7 7,9 11,5 14,3 7 4 11 6 OZO 1024,3 36 0 0,0
23.09.2017 03:00:00 7,1 6,2 5,5 8,0 11,8 14,3 7 4 11 6 OZO 1024,7 33 0 0,0
23.09.2017 02:00:00 7,8 6,6 5,9 8,2 12,1 14,3 8 4 13 7 OZO 1024,6 24 0 0,0
23.09.2017 01:00:00 6,1 5,5 5,1 8,5 12,5 14,3 9 5 13 7 OZO 1024,6 20 0 0,0
23.09.2017 00:00:00 6,4 5,7 5,0 9,1 12,9 14,3 5 3 10 6 OZO 1024,7 20 0 0,0
22.09.2017 23:00:00 6,9 6,0 5,7 9,7 13,3 14,3 6 3 10 5 OZO 1024,3 27 0 0,0
22.09.2017 22:00:00 7,0 5,8 5,8 10,5 13,7 14,3 7 4 9 5 O 1023,9 23 0 0,0
22.09.2017 21:00:00 8,2 6,1 7,0 11,6 14,2 14,4 8 4 10 5 OZO 1023,3 39 0 0,0
22.09.2017 20:00:00 10,5 7,5 8,7 13,2 14,5 14,4 3 2 9 5 OZO 1022,2 25 0 0,0
22.09.2017 19:00:00 15,6 5,1 12,5 15,2 14,6 14,4 2 1 14 8 W 1020,3 56 57 0,0
22.09.2017 18:00:00 18,0 3,7 17,6 17,2 14,5 14,4 10 5 22 12 WNW 1019,5 24 60 0,0
22.09.2017 17:00:00 18,4 6,5 18,7 19,0 14,2 14,4 9 5 19 11 W 1019,2 12 57 0,0
22.09.2017 16:00:00 19,2 6,2 19,9 20,1 13,7 14,4 8 5 20 11 W 1018,9 33 45 0,0
22.09.2017 15:00:00 18,1 7,5 19,1 20,0 13,0 14,4 11 6 22 12 WNW 1019,0 38 49 0,0
22.09.2017 14:00:00 18,9 8,2 21,9 20,5 12,1 14,4 9 5 23 13 W 1018,7 50 59 0,0
22.09.2017 13:00:00 18,0 8,2 20,4 18,7 11,3 14,4 9 5 21 11 WZW 1018,7 35 55 0,0
22.09.2017 12:00:00 16,5 7,1 19,6 17,3 10,4 14,4 8 4 19 10 WNW 1019,5 27 60 0,0
22.09.2017 11:00:00 14,2 6,8 17,1 13,9 9,8 14,4 2 1 9 5 NNO 1020,3 46 60 0,0
22.09.2017 10:00:00 10,1 5,1 12,8 9,9 9,5 14,4 6 3 12 7 Z 1021,6 21 60 0,0
22.09.2017 09:00:00 7,6 4,0 8,6 6,4 9,6 14,4 5 3 11 6 Z 1022,1 33 60 0,0
22.09.2017 08:00:00 5,0 3,5 3,6 5,6 9,8 14,4 5 3 13 7 ZZO 1022,6 44 14 0,0
22.09.2017 07:00:00 4,5 3,3 2,3 5,6 10,1 14,4 6 4 13 7 ZO 1022,5 44 0 0,0
22.09.2017 06:00:00 4,8 3,4 2,7 5,9 10,4 14,4 6 3 14 7 ZZO 1022,4 40 0 0,0
22.09.2017 05:00:00 4,6 3,8 3,2 6,2 10,6 14,4 8 4 14 8 OZO 1022,6 33 0 0,0
22.09.2017 04:00:00 4,4 3,9 3,4 6,5 11,0 14,5 10 6 15 8 OZO 1022,7 21 0 0,0
22.09.2017 03:00:00 4,7 4,3 3,2 6,9 11,3 14,5 8 4 11 6 OZO 1022,9 16 0 0,0
22.09.2017 02:00:00 4,2 4,0 3,4 7,4 11,7 14,5 9 5 10 5 OZO 1023,1 9 0 0,0
22.09.2017 01:00:00 4,8 4,5 3,8 7,9 12,1 14,5 6 4 10 5 OZO 1022,6 10 0 0,0
22.09.2017 00:00:00 5,0 4,6 3,8 8,6 12,5 14,5 5 3 8 5 OZO 1022,4 11 0 0,0
21.09.2017 23:00:00 5,9 5,1 4,5 9,3 12,9 14,5 5 3 9 5 OZO 1022,1 16 0 0,0
21.09.2017 22:00:00 6,7 5,7 5,0 10,3 13,3 14,5 0 0 8 4 O 1021,8 20 0 0,0
21.09.2017 21:00:00 7,8 6,6 6,0 11,4 13,7 14,5 0 0 4 2 N 1021,3 23 0 0,0
21.09.2017 20:00:00 9,6 7,5 7,4 12,9 14,0 14,5 0 0 9 5 N 1020,4 30 0 0,0
21.09.2017 19:00:00 14,2 6,8 12,0 14,9 14,1 14,5 3 1 11 6 ONO 1019,0 47 59 0,0
21.09.2017 18:00:00 16,1 6,6 16,8 16,9 14,0 14,5 4 2 16 9 NO 1018,3 47 60 0,0
21.09.2017 17:00:00 16,6 5,7 17,9 18,5 13,6 14,5 7 4 16 9 ONO 1018,2 31 60 0,0
21.09.2017 16:00:00 16,5 5,1 18,0 19,7 13,0 14,5 9 5 17 9 O 1018,3 6 60 0,0
21.09.2017 15:00:00 16,2 4,6 18,7 19,9 12,2 14,6 10 5 20 11 ONO 1018,9 16 60 0,0
21.09.2017 14:00:00 16,0 5,9 18,7 19,4 11,3 14,6 7 4 19 10 NO 1019,3 23 60 0,0
21.09.2017 13:00:00 14,5 4,5 17,0 18,0 10,4 14,6 11 6 17 9 O 1020,3 20 60 0,0
21.09.2017 12:00:00 13,3 4,4 16,0 15,9 9,5 14,6 9 5 16 9 ONO 1021,1 21 60 0,0
21.09.2017 11:00:00 11,6 5,8 14,7 12,6 8,9 14,6 3 2 9 5 ZZO 1021,9 25 60 0,0
21.09.2017 10:00:00 7,7 3,6 10,7 8,8 8,7 14,6 5 3 10 5 Z 1023,1 38 60 0,0
21.09.2017 09:00:00 5,5 2,8 6,2 5,1 8,8 14,6 5 3 11 6 ZO 1023,9 19 60 0,0
21.09.2017 08:00:00 3,1 2,6 2,1 4,3 9,0 14,6 9 5 14 7 OZO 1024,6 17 15 0,0
21.09.2017 07:00:00 2,2 2,0 0,9 4,5 9,3 14,6 8 5 12 7 ZO 1024,8 5 0 0,0
21.09.2017 06:00:00 2,5 2,2 1,3 4,8 9,6 14,6 7 4 10 6 OZO 1024,8 12 0 0,0
21.09.2017 05:00:00 3,1 2,8 1,7 5,3 9,9 14,6 8 4 11 6 OZO 1024,8 17 0 0,0
21.09.2017 04:00:00 2,9 2,6 2,0 5,8 10,2 14,6 8 5 9 5 OZO 1025,1 12 0 0,0
21.09.2017 03:00:00 3,7 3,5 2,2 6,4 10,5 14,6 5 3 11 6 ZZO 1024,8 10 0 0,0
21.09.2017 02:00:00 4,3 3,9 3,2 7,0 10,7 14,7 7 4 9 5 OZO 1025,1 12 0 0,0
21.09.2017 01:00:00 6,0 4,8 5,2 7,9 10,9 14,7 6 3 13 7 ZO 1024,4 31 0 0,0
21.09.2017 00:00:00 6,1 5,1 5,6 7,9 11,1 14,7 7 4 14 7 ZO 1024,6 27 0 0,0
20.09.2017 23:00:00 5,4 4,9 4,2 7,8 11,5 14,7 6 3 10 5 ZZO 1024,8 18 0 0,0
20.09.2017 22:00:00 5,3 5,0 4,2 8,5 11,8 14,7 8 4 11 6 ZO 1024,6 14 0 0,0
20.09.2017 21:00:00 5,9 5,6 5,1 9,4 12,1 14,7 6 3 8 5 O 1024,4 12 0 0,0
20.09.2017 20:00:00 7,3 6,4 6,0 10,5 12,3 14,7 4 2 11 6 ZO 1023,6 28 1 0,0
20.09.2017 19:00:00 9,4 6,3 8,4 11,9 12,4 14,7 9 5 16 8 Z 1022,5 41 58 0,0
20.09.2017 18:00:00 10,1 6,4 10,3 13,1 12,3 14,7 6 3 12 7 Z 1022,1 40 9 0,0
20.09.2017 17:00:00 9,8 6,0 10,2 13,7 12,1 14,7 8 4 15 8 Z 1022,3 47 0 0,0
20.09.2017 16:00:00 10,2 6,7 11,3 14,6 11,7 14,7 8 5 16 9 ZZW 1022,2 51 7 0,0
20.09.2017 15:00:00 9,9 6,6 12,2 14,3 11,4 14,7 6 3 11 6 ZO 1022,4 40 17 0,1
20.09.2017 14:00:00 7,4 6,1 7,9 11,6 11,2 14,7 8 5 19 10 ONO 1023,5 15 0 2,4
20.09.2017 13:00:00 9,2 6,3 10,9 12,9 10,8 14,7 7 4 13 7 ZZO 1023,0 47 3 0,0
20.09.2017 12:00:00 8,2 6,6 9,1 11,0 10,7 14,7 3 2 11 6 O 1023,5 34 0 1,3
20.09.2017 11:00:00 7,1 5,8 7,0 10,3 10,6 14,8 9 5 16 8 ONO 1023,6 2,5 1 2,1
20.09.2017 10:00:00 7,9 6,9 8,1 9,6 10,5 14,8 6 3 9 5 Z 1023,1 22 0 0,3
20.09.2017 09:00:00 7,3 6,7 7,4 8,8 10,5 14,8 5 3 14 7 Z 1022,9 14 0 1,2
20.09.2017 08:00:00 7,0 6,2 7,0 8,5 10,6 14,8 4 2 10 5 ZZO 1022,9 28 0 0,0
20.09.2017 07:00:00 6,8 5,7 6,7 8,4 10,6 14,8 5 3 12 6 Z 1022,5 37 0 0,0
20.09.2017 06:00:00 6,8 6,0 6,7 8,5 10,7 14,8 4 2 10 5 Z 1022,3 38 0 0,0
20.09.2017 05:00:00 6,6 5,7 6,3 8,4 10,8 14,8 6 3 10 6 Z 1022,2 44 0 0,0
20.09.2017 04:00:00 6,6 5,8 6,3 8,6 10,9 14,8 7 4 11 6 ZZO 1022,0 39 0 0,0
20.09.2017 03:00:00 6,5 5,8 6,5 8,6 11,0 14,8 5 3 12 7 ZZO 1022,0 40 0 0,0
20.09.2017 02:00:00 6,7 6,0 6,6 8,7 11,1 14,8 7 4 12 7 Z 1022,1 33 0 0,0

tt = temperatuur
td = dauwpunt
tt 5cm = temperatuur 5cm
tt -5cm = temperatuur -5cm
tt -20cm = temperatuur -20cm
tt -100cm = temperatuur -100cm
ff = windsnelheid
fx = windstoten
dd = windrichting
ppp = luchtdruk
vv = zicht
sd = Zonneschijnduur
rr = neerslag

Weerstations in de omgeving